| time (UTC) | temp C | wind direction | speed KPH | gust KPH | rain 1hr cm | rain 24hr cm | rain mn cm | humidity % | barometer mb |
| 20260510120703 | 16 | 333 | 3.2 | 12.9 | 0.00 | 0.53 | 0.25 | 78 | 1019.8 |
| 20260510120203 | 16 | 12 | 4.8 | 9.7 | 0.00 | 0.53 | 0.25 | 78 | 1020.0 |
| 20260510113703 | 15 | 294 | 3.2 | 4.8 | 0.00 | 0.53 | 0.25 | 78 | 1019.1 |
| 20260510113204 | 15 | 261 | 0.0 | 4.8 | 0.00 | 0.53 | 0.25 | 78 | 1018.8 |
| 20260510110703 | 15 | 338 | 3.2 | 8.0 | 0.00 | 0.56 | 0.25 | 78 | 1016.7 |
| 20260510110204 | 15 | 1 | 3.2 | 8.0 | 0.00 | 0.56 | 0.25 | 78 | 1016.3 |
| 20260510093703 | 16 | 3 | 0.0 | 4.8 | 0.00 | 0.56 | 0.25 | 81 | 1014.6 |
| 20260510093203 | 16 | 3 | 1.6 | 3.2 | 0.00 | 0.56 | 0.25 | 80 | 1014.7 |
| 20260510090703 | 16 | 3 | 1.6 | 4.8 | 0.00 | 0.56 | 0.25 | 79 | 1014.8 |
| 20260510090203 | 16 | 3 | 3.2 | 16.1 | 0.00 | 0.56 | 0.25 | 79 | 1014.7 |
| 20260510083703 | 16 | 346 | 4.8 | 12.9 | 0.00 | 0.56 | 0.25 | 79 | 1014.3 |
| 20260510083204 | 16 | 2 | 6.4 | 16.1 | 0.00 | 0.56 | 0.25 | 79 | 1014.1 |
| 20260510080704 | 17 | 221 | 1.6 | 4.8 | 0.00 | 0.56 | 0.25 | 78 | 1013.0 |
| 20260510080203 | 17 | 224 | 3.2 | 11.3 | 0.00 | 0.56 | 0.25 | 77 | 1013.1 |
| 20260510073704 | 17 | 139 | 3.2 | 11.3 | 0.00 | 0.56 | 0.25 | 76 | 1012.5 |
| 20260510073204 | 17 | 150 | 8.0 | 20.9 | 0.00 | 0.56 | 0.25 | 76 | 1012.4 |
| 20260510070703 | 17 | 148 | 9.7 | 16.1 | 0.00 | 0.56 | 0.25 | 78 | 1012.2 |
| 20260510070203 | 16 | 155 | 8.0 | 22.5 | 0.00 | 0.56 | 0.25 | 79 | 1012.3 |
| 20260510063704 | 16 | 147 | 11.3 | 22.5 | 0.05 | 0.56 | 0.25 | 81 | 1012.4 |
| 20260510063203 | 16 | 157 | 11.3 | 27.4 | 0.08 | 0.56 | 0.25 | 83 | 1012.4 |
| 20260510060703 | 16 | 133 | 4.8 | 14.5 | 0.23 | 0.56 | 0.25 | 87 | 1014.3 |
| 20260510060204 | 16 | 126 | 6.4 | 11.3 | 0.25 | 0.56 | 0.25 | 87 | 1014.6 |
| 20260510053703 | 16 | 154 | 0.0 | 3.2 | 0.08 | 0.51 | 0.20 | 85 | 1017.1 |
| 20260510053203 | 16 | 154 | 1.6 | 4.8 | 0.10 | 0.48 | 0.18 | 84 | 1016.2 |
| 20260510050705 | 17 | 235 | 0.0 | 8.0 | 0.00 | 0.33 | 0.03 | 81 | 1018.0 |
| 20260510043703 | 20 | 299 | 3.2 | 12.9 | 0.10 | 0.13 | 0.13 | 71 | 1018.2 |
| 20260510043203 | 20 | 288 | 1.6 | 16.1 | 0.05 | 0.08 | 0.08 | 67 | 1017.3 |
| 20260510040704 | 22 | 356 | 8.0 | 12.9 | 0.00 | 0.03 | 0.03 | 56 | 1015.6 |
| 20260510040204 | 22 | 333 | 1.6 | 8.0 | 0.00 | 0.03 | 0.03 | 53 | 1014.3 |
| 20260510033204 | 22 | 97 | 1.6 | 11.3 | 0.00 | 0.03 | 0.03 | 49 | 1013.2 |
| 20260510030703 | 22 | 107 | 4.8 | 11.3 | 0.00 | 0.03 | 0.03 | 50 | 1012.7 |
| 20260510023203 | 23 | 109 | 4.8 | 12.9 | 0.00 | 0.03 | 0.03 | 47 | 1012.2 |
| 20260510020704 | 23 | 78 | 3.2 | 9.7 | 0.00 | 0.03 | 0.03 | 45 | 1011.7 |
| 20260510020204 | 23 | 101 | 3.2 | 11.3 | 0.00 | 0.03 | 0.03 | 44 | 1011.2 |
| 20260510013703 | 24 | 95 | 6.4 | 12.9 | 0.00 | 0.03 | 0.03 | 41 | 1010.4 |
| 20260510013203 | 25 | 93 | 4.8 | 11.3 | 0.00 | 0.03 | 0.03 | 41 | 1010.3 |
| 20260510003704 | 27 | 151 | 6.4 | 11.3 | 0.00 | 0.03 | 0.03 | 35 | 1010.0 |
| 20260510003203 | 27 | 126 | 6.4 | 19.3 | 0.00 | 0.03 | 0.03 | 35 | 1010.1 |
| 20260510000703 | 27 | 147 | 9.7 | 19.3 | 0.00 | 0.03 | 0.03 | 33 | 1010.0 |
| 20260510000204 | 28 | 148 | 11.3 | 20.9 | 0.00 | 0.03 | 0.03 | 34 | 1010.0 |
| 20260509233703 | 28 | 161 | 9.7 | 24.1 | 0.00 | 0.03 | 0.03 | 33 | 1010.1 |
| 20260509233204 | 28 | 125 | 9.7 | 22.5 | 0.00 | 0.03 | 0.03 | 32 | 1010.0 |
| 20260509230704 | 28 | 136 | 14.5 | 22.5 | 0.00 | 0.03 | 0.03 | 32 | 1010.1 |
| 20260509223704 | 29 | 137 | 14.5 | 20.9 | 0.00 | 0.03 | 0.03 | 33 | 1010.3 |
| 20260509220704 | 29 | 159 | 9.7 | 19.3 | 0.00 | 0.03 | 0.03 | 33 | 1010.4 |
| 20260509220204 | 29 | 145 | 6.4 | 19.3 | 0.00 | 0.03 | 0.03 | 33 | 1010.4 |
| 20260509213703 | 29 | 117 | 8.0 | 12.9 | 0.00 | 0.03 | 0.03 | 31 | 1010.6 |
| 20260509213204 | 29 | 130 | 4.8 | 19.3 | 0.00 | 0.03 | 0.03 | 31 | 1010.6 |
| 20260509210703 | 29 | 143 | 4.8 | 11.3 | 0.00 | 0.03 | 0.03 | 31 | 1010.9 |
| 20260509210204 | 29 | 149 | 9.7 | 20.9 | 0.00 | 0.03 | 0.03 | 31 | 1011.0 |
| 20260509203703 | 29 | 137 | 11.3 | 20.9 | 0.00 | 0.03 | 0.03 | 32 | 1011.3 |
| 20260509203204 | 29 | 109 | 4.8 | 19.3 | 0.00 | 0.03 | 0.03 | 31 | 1011.3 |
| 20260509200704 | 29 | 116 | 4.8 | 16.1 | 0.00 | 0.03 | 0.03 | 32 | 1011.6 |
| 20260509193704 | 28 | 126 | 8.0 | 14.5 | 0.00 | 0.03 | 0.03 | 30 | 1012.1 |
| 20260509193203 | 28 | 141 | 3.2 | 19.3 | 0.00 | 0.03 | 0.03 | 34 | 1012.2 |
| 20260509190704 | 28 | 168 | 4.8 | 12.9 | 0.00 | 0.03 | 0.03 | 34 | 1012.2 |
| 20260509190203 | 28 | 156 | 6.4 | 19.3 | 0.00 | 0.03 | 0.03 | 35 | 1012.2 |
| 20260509183704 | 27 | 145 | 1.6 | 12.9 | 0.00 | 0.03 | 0.03 | 37 | 1012.5 |
| 20260509183203 | 28 | 160 | 3.2 | 16.1 | 0.00 | 0.03 | 0.03 | 38 | 1012.7 |
| 20260509180203 | 27 | 161 | 8.0 | 19.3 | 0.00 | 0.03 | 0.03 | 42 | 1013.3 |
| 20260509173703 | 27 | 155 | 4.8 | 19.3 | 0.00 | 0.03 | 0.03 | 46 | 1013.3 |
| 20260509173203 | 27 | 136 | 8.0 | 19.3 | 0.00 | 0.03 | 0.03 | 42 | 1013.4 |
| 20260509170704 | 26 | 170 | 3.2 | 12.9 | 0.00 | 0.03 | 0.03 | 41 | 1013.6 |
| 20260509170203 | 26 | 134 | 6.4 | 16.1 | 0.00 | 0.03 | 0.03 | 36 | 1013.6 |
| 20260509163703 | 27 | 197 | 4.8 | 14.5 | 0.00 | 0.03 | 0.03 | 45 | 1014.0 |
| 20260509163204 | 27 | 125 | 6.4 | 12.9 | 0.00 | 0.03 | 0.03 | 43 | 1014.0 |
| 20260509160703 | 26 | 143 | 6.4 | 9.7 | 0.00 | 0.03 | 0.03 | 51 | 1014.0 |
| 20260509160204 | 25 | 160 | 1.6 | 9.7 | 0.00 | 0.03 | 0.03 | 54 | 1013.9 |
| 20260509153704 | 24 | 143 | 4.8 | 11.3 | 0.00 | 0.03 | 0.03 | 55 | 1013.5 |
| 20260509153204 | 24 | 170 | 3.2 | 9.7 | 0.00 | 0.03 | 0.03 | 55 | 1013.5 |
| 20260509150703 | 23 | 156 | 4.8 | 8.0 | 0.00 | 0.03 | 0.03 | 66 | 1013.4 |
| 20260509150204 | 23 | 150 | 3.2 | 4.8 | 0.00 | 0.03 | 0.03 | 66 | 1013.5 |
| 20260509143703 | 21 | 110 | 0.0 | 3.2 | 0.00 | 0.03 | 0.03 | 75 | 1013.5 |
| 20260509140704 | 18 | 111 | 1.6 | 3.2 | 0.00 | 0.03 | 0.03 | 89 | 1013.5 |
| 20260509140203 | 17 | 109 | 1.6 | 3.2 | 0.00 | 0.03 | 0.03 | 90 | 1013.4 |
| 20260509133203 | 16 | 108 | 1.6 | 3.2 | 0.00 | 0.03 | 0.03 | 92 | 1013.4 |
| 20260509130704 | 14 | 108 | 1.6 | 3.2 | 0.00 | 0.03 | 0.03 | 92 | 1013.4 |
| 20260509130204 | 14 | 108 | 0.0 | 4.8 | 0.00 | 0.03 | 0.03 | 92 | 1013.3 |
| 20260509123704 | 12 | 111 | 1.6 | 3.2 | 0.00 | 0.03 | 0.03 | 92 | 1012.9 |